User: anonymous   Login
Location: Unspecified
(0.0000°N, 0.0000°E)
Time: 23:00:30
(UTC+00:00)
Language:

QB50P2 - Orbit

View from above orbital plane
View from above orbital plane
View from above satellite
View from above satellite

Ground track
Ground track

The orbit data is extracted from the following two-line orbital elements,

1 40032U 14033Y   20184.76201421  .00000104  00000-0  17206-4 0  9993
2 40032  97.9038 106.5067 0010401 243.2846 116.7306 14.88674602327784
Epoch (UTC): 02 July 2020 18:17:18
Eccentricity: 0.0010401
inclination: 97.9038°
perigee height: 595 km
apogee height: 609 km
right ascension of ascending node: 106.5067°
argument of perigee: 243.2846°
revolutions per day: 14.88674602
mean anomaly at epoch: 116.7306°
orbit number at epoch: 32778

The dashed part of the orbit path shows where the satellite is in the earth's shadow,  

DLR